Regional Weather Roundup
Issued by NWS

Home | Current Version | Previous Version | Graphics & Text | Print | Product List | Glossary On
Versions: 1 2 3 4 5 6 7 8 9 10 11 12 13 14 15 16 17 18 19 20 21 22 23 24 25 26 27 28 29 30 31 32 33 34 35 36 37 38 39 40 41 42 43 44 45 46 47 48 49 50
000
ASUS43 KDMX 131507
RWRIA

WEATHER ROUNDUP FOR IOWA
NATIONAL WEATHER SERVICE DES MOINES IA
1000 AM CDT SUN JUL 13 2014

NOTE: "FAIR" INDICATES FEW OR NO CLOUDS BELOW 12,000 FEET WITH NO
SIGNIFICANT WEATHER AND/OR OBSTRUCTIONS TO VISIBILITY.

* - THESE STATIONS ARE NOT NWS STATIONS...THUS NOT UNDER NWS
QUALITY CONTROL.  THEY ALSO DO NOT REPORT WEATHER SUCH
AS PRECIPITATION OR FOG.

IAZ001>003-012>014-020>022-031>034-043>046-131600-
   NORTHWEST IOWA

CITY           SKY/WX    TMP DP  RH WIND       PRES   REMARKS
CARROLL *      SUNNY     77  70  78 NW10      30.04S
CHEROKEE *     MOSUNNY   75  72  88 NW8       30.05S
DENISON *      MOSUNNY   72  72 100 W5        30.04F
LE MARS *      MOSUNNY   73  68  83 NW6       30.06S
ORANGE CITY *  SUNNY     75  66  73 NW6       30.05F
SHELDON *      MOSUNNY   72  66  83 NW7       30.04F
SIOUX CITY     SUNNY     78  69  73 NW7       30.05F HX  80
SPENCER        MOSUNNY   73  65  75 W6        30.05S
STORM LAKE *   SUNNY     75  72  88 W13       30.06S
$$

IAZ055>058-069>071-079>083-090>094-131600-
   SOUTHWEST IOWA

CITY           SKY/WX    TMP DP  RH WIND       PRES   REMARKS
ATLANTIC *     SUNNY     77  70  78 CALM      30.05S
AUDUBON *      SUNNY     79  73  83 W6        30.06F HX  82
CLARINDA *     SUNNY     77  72  83 N6        30.06F
COUNCIL BLFS * SUNNY     79  72  78 NW8       30.06S HX  82
CRESTON *      MOSUNNY   75  72  88 NW9       30.06S
HARLAN  *      SUNNY     77  70  78 NW9       30.09F
LAMONI         MOSUNNY   76  69  79 NE7       30.04F
RED OAK *      SUNNY     77  72  83 NW7       30.06S
SHENANDOAH *   SUNNY     79  72  78 N7        30.06S HX  82
$$

IAZ047>049-059>061-072>074-084-131600-
   CENTRAL IOWA

CITY           SKY/WX    TMP DP  RH WIND       PRES   REMARKS
AMES           SUNNY     76  70  82 W9        30.02S
ANKENY *       SUNNY     77  70  78 W8        30.03S
CHARITON *     PTSUNNY   75  70  83 NW6       30.04S
DES MOINES     MOSUNNY   78  70  76 W8        30.02S HX  80
GRINNELL*      MOSUNNY   72  68  88 W6        30.03F
KNOXVILLE *    PTSUNNY   73  70  88 NW7       30.02S
MARSHALLTOWN   SUNNY     72  69  90 W8        30.01S
PELLA *        CLOUDY    73  72  94 W6        30.04S
PERRY *          N/A     77  72  83 W6        30.04S
$$

IAZ004>006-015-016-023>025-035-036-131600-
   NORTH CENTRAL IOWA

CITY           SKY/WX    TMP DP  RH WIND       PRES   REMARKS
ALGONA *       MOSUNNY   73  63  68 NW10      30.03S
CLARION *      PTSUNNY   73  70  88 NW10      30.03R
ESTHERVILLE    SUNNY     72  60  66 NW8       30.03S
FORT DODGE *   SUNNY     73  68  83 W7        30.04S
MASON CITY     MOSUNNY   74  65  73 W13       30.02S
FOREST CITY *  MOSUNNY   72  66  83 W12       30.02R
IOWA FALLS *     N/A     75  68  78 W10       30.03S
$$

IAZ007>011-017>019-026>030-037>042-050>054-066-131600-
   NORTHEAST IOWA

CITY           SKY/WX    TMP DP  RH WIND       PRES   REMARKS
CEDAR RAPIDS   MOSUNNY   73  68  84 W7        30.00S
CHARLES CITY * MOSUNNY   73  66  78 W8G16     30.00S
CLINTON *      PTSUNNY   72  66  83 W8        30.01S
DECORAH *        N/A    N/A N/A N/A MISG        N/A
DUBUQUE        MOSUNNY   71  67  87 SW7       29.99S
MONTICELLO *   PTSUNNY   73  68  83 W7        29.99S
OELWEIN *      SUNNY     73  73 100 W10       30.00F
WATERLOO       SUNNY     76  68  76 W10       29.99S
$$

IAZ064-065-067-068-078-131600-
   EAST CENTRAL IOWA

CITY           SKY/WX    TMP DP  RH WIND       PRES   REMARKS
DAVENPORT        N/A     72  66  81 W9        30.00S
IOWA CITY      MOSUNNY   73  68  84 W9        30.01F
MT. PLEASANT * CLOUDY    70  68  94 NW5       30.02F
MUSCATINE *    PTSUNNY   73  66  78 VRB6      30.00F
QUAD CITIES    PTSUNNY   73  66  78 W8        29.99S
$$

IAZ062-063-075>077-085>089-095>099-131600-
   SOUTHEAST IOWA

CITY           SKY/WX    TMP DP  RH WIND       PRES   REMARKS
BURLINGTON     CLOUDY    69  67  93 NW7       30.01S
FAIRFIELD *    PTSUNNY   73  68  83 VRB5      30.02S
FORT MADISON * CLOUDY    73  70  88 CALM      30.03S
KEOKUK *       PTSUNNY   72  68  88 VRB5      30.01S
OSKALOOSA *      N/A     73  70  88 NW6       30.02F
CENTERVILLE *  MOSUNNY   75  72  88 NW3       30.04F
OTTUMWA        MOSUNNY   74  69  85 W5        30.02S
WASHINGTON *   PTSUNNY   72  70  94 W7        30.02S
$$

ABBREVIATIONS USED IN REMARKS
   TC - TEMPERATURES IN CELSIUS
  WCI - WIND CHILL INDEX
   HX - HEAT INDEX
  VSB - VISIBILITY
$$



USA.gov is the U.S. government's official web portal to all federal, state and local government web resources and services.